• In Austria
  • List of Countries
  • For 7 days
  • Water Temperature
  • Satellite Maps
  • Weather Map
  • News
  • Weather Widgets
  • user-avatar
    Login

    Hourly Weather Oran

    Today, 18 February, Sunday

    Time Temperature Precipitation Wind Pressure Humidity
    00:00 +11°C° 0 mm 3 mps 755 mmHg 79%
    01:00 +10°C° 0 mm 3 mps 755 mmHg 79%
    02:00 +10°C° 0 mm 2 mps 755 mmHg 79%
    03:00 +9°C° 0 mm 2 mps 754 mmHg 79%
    04:00 +9°C° 0 mm 2 mps 754 mmHg 79%
    05:00 +9°C° 0 mm 2 mps 754 mmHg 78%
    06:00 +9°C° 0 mm 2 mps 755 mmHg 79%
    07:00 +12°C° 0 mm 2 mps 755 mmHg 71%
    08:00 +14°C° 0 mm 2 mps 755 mmHg 64%
    09:00 +16°C° 0 mm 2 mps 755 mmHg 56%
    10:00 +17°C° 0 mm 2 mps 754 mmHg 55%
    11:00 +17°C° 0 mm 2 mps 754 mmHg 54%
    12:00 +19°C° 0 mm 2 mps 754 mmHg 52%
    13:00 +19°C° 0 mm 2 mps 754 mmHg 54%
    14:00 +19°C° 0 mm 3 mps 753 mmHg 56%
    15:00 +19°C° 0 mm 4 mps 753 mmHg 59%
    16:00 +17°C° 0 mm 3 mps 753 mmHg 68%
    17:00 +16°C° 0 mm 3 mps 753 mmHg 77%
    18:00 +13°C° 0 mm 3 mps 753 mmHg 85%
    19:00 +14°C° 0 mm 2 mps 753 mmHg 88%
    20:00 +13°C° 0 mm 2 mps 753 mmHg 90%
    21:00 +13°C° 0 mm 2 mps 753 mmHg 93%
    22:00 +12°C° 0.1 mm 1 mps 753 mmHg 93%
    23:00 +12°C° 0.1 mm 1 mps 753 mmHg 93%

    Tomorrow, 19 February, Monday

    Time Temperature Precipitation Wind Pressure Humidity
    00:00 +11°C° 0.1 mm 1 mps 753 mmHg 93%
    01:00 +11°C° 0.1 mm 1 mps 752 mmHg 93%
    02:00 +11°C° 0.1 mm 1 mps 752 mmHg 93%
    03:00 +10°C° 0.1 mm 1 mps 752 mmHg 93%
    04:00 +10°C° 0.1 mm 1 mps 752 mmHg 93%
    05:00 +10°C° 0.1 mm 1 mps 752 mmHg 94%
    06:00 +10°C° 0.1 mm 1 mps 751 mmHg 94%
    07:00 +12°C° 0.2 mm 1 mps 752 mmHg 89%
    08:00 +13°C° 0.2 mm 1 mps 752 mmHg 84%
    09:00 +15°C° 0.2 mm 1 mps 752 mmHg 78%
    10:00 +16°C° 0.2 mm 2 mps 752 mmHg 71%
    11:00 +17°C° 0.2 mm 3 mps 752 mmHg 64%
    12:00 +18°C° 0.2 mm 4 mps 752 mmHg 56%
    13:00 +18°C° 0.2 mm 4 mps 752 mmHg 57%
    14:00 +18°C° 0.2 mm 4 mps 751 mmHg 58%
    15:00 +17°C° 0.2 mm 5 mps 751 mmHg 59%
    16:00 +15°C° 0.1 mm 4 mps 751 mmHg 66%
    17:00 +14°C° 0.1 mm 4 mps 751 mmHg 73%
    18:00 +13°C° 0.1 mm 3 mps 751 mmHg 80%
    19:00 +12°C° 0 mm 3 mps 752 mmHg 83%
    20:00 +13°C° 0 mm 2 mps 752 mmHg 86%
    21:00 +12°C° 0 mm 2 mps 752 mmHg 89%
    22:00 +10°C° 0 mm 2 mps 752 mmHg 90%
    23:00 +11°C° 0 mm 1 mps 752 mmHg 92%

    Day after tomorrow, 20 February, Tuesday

    Time Temperature Precipitation Wind Pressure Humidity
    00:00 +10°C° 0 mm 1 mps 752 mmHg 93%
    01:00 +10°C° 0 mm 1 mps 752 mmHg 94%
    02:00 +8°C° 0 mm 0 mps 752 mmHg 94%
    03:00 +8°C° 0 mm 0 mps 752 mmHg 95%
    04:00 +9°C° 0 mm 1 mps 752 mmHg 95%
    05:00 +8°C° 0 mm 1 mps 751 mmHg 95%
    06:00 +8°C° 0 mm 1 mps 751 mmHg 95%
    07:00 +10°C° 0 mm 1 mps 752 mmHg 88%
    08:00 +12°C° 0 mm 2 mps 752 mmHg 81%
    09:00 +14°C° 0 mm 2 mps 752 mmHg 73%
    10:00 +14°C° 0 mm 3 mps 752 mmHg 67%
    11:00 +16°C° 0 mm 3 mps 752 mmHg 60%
    12:00 +17°C° 0 mm 3 mps 752 mmHg 53%
    13:00 +17°C° 0 mm 4 mps 751 mmHg 53%
    14:00 +17°C° 0 mm 4 mps 751 mmHg 53%
    15:00 +17°C° 0 mm 4 mps 750 mmHg 52%
    16:00 +15°C° 0 mm 4 mps 750 mmHg 60%
    17:00 +13°C° 0 mm 3 mps 750 mmHg 68%
    18:00 +12°C° 0 mm 3 mps 750 mmHg 75%
    19:00 +11°C° 0 mm 3 mps 750 mmHg 77%
    20:00 +12°C° 0 mm 2 mps 750 mmHg 79%
    21:00 +10°C° 0 mm 2 mps 751 mmHg 81%
    22:00 +10°C° 0 mm 3 mps 750 mmHg 79%
    23:00 +10°C° 0 mm 3 mps 750 mmHg 77%

    21 February, Wednesday

    Time Temperature Precipitation Wind Pressure Humidity
    00:00 +10°C° 0 mm 3 mps 749 mmHg 75%
    01:00 +10°C° 0 mm 3 mps 749 mmHg 73%
    02:00 +10°C° 0 mm 3 mps 748 mmHg 72%
    03:00 +10°C° 0 mm 3 mps 748 mmHg 71%
    04:00 +9°C° 0 mm 3 mps 747 mmHg 71%
    05:00 +9°C° 0 mm 2 mps 747 mmHg 72%
    06:00 +9°C° 0 mm 2 mps 747 mmHg 72%
    07:00 +10°C° 0 mm 2 mps 747 mmHg 65%
    08:00 +13°C° 0 mm 2 mps 747 mmHg 58%
    09:00 +15°C° 0 mm 2 mps 747 mmHg 51%
    10:00 +16°C° 0 mm 3 mps 746 mmHg 50%
    11:00 +16°C° 0 mm 5 mps 746 mmHg 49%
    12:00 +16°C° 0 mm 6 mps 746 mmHg 49%
    13:00 +16°C° 0 mm 6 mps 745 mmHg 48%
    14:00 +15°C° 0 mm 6 mps 745 mmHg 47%
    15:00 +15°C° 0 mm 6 mps 744 mmHg 45%
    16:00 +14°C° 0 mm 5 mps 744 mmHg 47%
    17:00 +13°C° 0 mm 4 mps 744 mmHg 49%
    18:00 +12°C° 0 mm 3 mps 744 mmHg 50%
    19:00 +11°C° 0 mm 3 mps 745 mmHg 52%
    20:00 +11°C° 0 mm 3 mps 745 mmHg 54%
    21:00 +11°C° 0 mm 3 mps 746 mmHg 56%
    22:00 +10°C° 0 mm 3 mps 746 mmHg 58%
    23:00 +8°C° 0 mm 4 mps 746 mmHg 61%

    22 February, Thursday

    Time Temperature Precipitation Wind Pressure Humidity
    00:00 +8°C° 0 mm 4 mps 746 mmHg 64%
    01:00 +7°C° 0.1 mm 4 mps 745 mmHg 70%
    02:00 +7°C° 0.1 mm 4 mps 745 mmHg 77%
    03:00 +7°C° 0.1 mm 4 mps 745 mmHg 83%
    04:00 +7°C° 0.1 mm 3 mps 745 mmHg 85%
    05:00 +7°C° 0.1 mm 3 mps 744 mmHg 87%
    06:00 +7°C° 0.1 mm 2 mps 744 mmHg 89%
    07:00 +8°C° 0.2 mm 2 mps 744 mmHg 82%
    08:00 +9°C° 0.2 mm 2 mps 745 mmHg 75%
    09:00 +12°C° 0.2 mm 1 mps 745 mmHg 68%
    10:00 +13°C° 0 mm 1 mps 744 mmHg 62%
    11:00 +14°C° 0 mm 1 mps 744 mmHg 55%
    12:00 +15°C° 0 mm 1 mps 744 mmHg 49%
    13:00 +15°C° 0 mm 2 mps 743 mmHg 47%
    14:00 +16°C° 0 mm 2 mps 742 mmHg 45%
    15:00 +16°C° 0 mm 3 mps 741 mmHg 43%
    16:00 +14°C° 0 mm 3 mps 741 mmHg 49%
    17:00 +12°C° 0 mm 3 mps 741 mmHg 54%
    18:00 +11°C° 0 mm 3 mps 741 mmHg 60%
    19:00 +10°C° 0 mm 3 mps 741 mmHg 63%
    20:00 +10°C° 0 mm 2 mps 742 mmHg 66%
    21:00 +9°C° 0 mm 2 mps 742 mmHg 69%
    22:00 +9°C° 0 mm 3 mps 742 mmHg 70%
    23:00 +9°C° 0 mm 3 mps 742 mmHg 71%

    23 February, Friday

    Time Temperature Precipitation Wind Pressure Humidity
    00:00 +8°C° 0 mm 3 mps 742 mmHg 73%
    01:00 +8°C° 0.1 mm 3 mps 742 mmHg 74%
    02:00 +8°C° 0.1 mm 2 mps 742 mmHg 76%
    03:00 +8°C° 0.1 mm 2 mps 742 mmHg 78%
    04:00 +8°C° 0.1 mm 3 mps 742 mmHg 80%
    05:00 +7°C° 0.1 mm 3 mps 742 mmHg 82%
    06:00 +7°C° 0.1 mm 3 mps 742 mmHg 85%
    07:00 +8°C° 0 mm 4 mps 742 mmHg 79%
    08:00 +10°C° 0 mm 4 mps 743 mmHg 72%
    09:00 +12°C° 0 mm 4 mps 743 mmHg 66%
    10:00 +13°C° 0 mm 5 mps 743 mmHg 63%
    11:00 +13°C° 0 mm 5 mps 743 mmHg 60%
    12:00 +14°C° 0 mm 5 mps 743 mmHg 57%
    13:00 +15°C° 0 mm 5 mps 743 mmHg 54%
    14:00 +15°C° 0 mm 5 mps 743 mmHg 52%
    15:00 +15°C° 0 mm 6 mps 742 mmHg 50%
    16:00 +14°C° 0 mm 6 mps 743 mmHg 54%
    17:00 +13°C° 0 mm 6 mps 743 mmHg 58%
    18:00 +10°C° 0 mm 6 mps 743 mmHg 62%
    19:00 +10°C° 0 mm 6 mps 744 mmHg 64%
    20:00 +9°C° 0 mm 6 mps 744 mmHg 67%
    21:00 +8°C° 0 mm 5 mps 745 mmHg 69%
    22:00 +8°C° 0 mm 5 mps 745 mmHg 70%
    23:00 +7°C° 0 mm 5 mps 745 mmHg 71%
    Show more